This is the latest recevied weather packets stored in our database for station/object N0MPM-4. If no packets are shown the sender has not sent any weather packets the latest 10 day(s).
| Time | Temp. | Humidity | Pressure | Rain* | Wind** | Luminosity | Snow |
|---|---|---|---|---|---|---|---|
| 1787931953 | 27.22° C | 63% | 1020.5 hPa | 0 mm | - | - | - |
| 1787931772 | 27.22° C | 66% | 1020.4 hPa | 0 mm | - | - | - |
| 1787931594 | 26.67° C | 67% | 1020.4 hPa | 0 mm | - | - | - |
| 1787931472 | 26.11° C | 67% | 1020.4 hPa | 0 mm | - | - | - |
| 1787931234 | 25.56° C | 71% | 1020.4 hPa | 0 mm | - | - | - |
| 1787931172 | 25.56° C | 71% | 1020.4 hPa | 0 mm | - | - | - |
| 1787930872 | 25.56° C | 69% | 1020.5 hPa | 0 mm | - | - | - |
| 1787930572 | 25.56° C | 69% | 1020.6 hPa | 0 mm | - | - | - |
| 1787930513 | 25.56° C | 71% | 1020.6 hPa | 0 mm | - | - | - |
| 1787930272 | 25° C | 72% | 1020.6 hPa | 0 mm | - | - | - |
| 1787930153 | 25° C | 72% | 1020.6 hPa | 0 mm | - | - | - |
| 1787929979 | 24.44° C | 75% | 1020.7 hPa | 0 mm | - | - | - |
| 1787929972 | 25° C | 75% | 1020.6 hPa | 0 mm | - | - | - |
| 1787929793 | 24.44° C | 75% | 1020.7 hPa | 0 mm | - | - | - |
| 1787929672 | 24.44° C | 75% | 1020.7 hPa | 0 mm | - | - | - |
| 1787929433 | 24.44° C | 77% | 1020.8 hPa | 0 mm | - | - | - |
| 1787929372 | 24.44° C | 77% | 1020.8 hPa | 0 mm | - | - | - |
| 1787929072 | 23.89° C | 76% | 1020.7 hPa | 0 mm | - | - | - |
| 1787928849 | 23.89° C | 77% | 1020.8 hPa | 0 mm | - | - | - |
| 1787928772 | 23.89° C | 77% | 1020.7 hPa | 0 mm | - | - | - |
| 1787928713 | 23.89° C | 77% | 1020.8 hPa | 0 mm | - | - | - |
| 1787928478 | 23.33° C | 77% | 1020.9 hPa | 0 mm | - | - | - |
| 1787928472 | 23.89° C | 77% | 1020.9 hPa | 0 mm | - | - | - |
| 1787928354 | 23.33° C | 77% | 1020.9 hPa | 0 mm | - | - | - |
| 1787928173 | 22.78° C | 77% | 1020.9 hPa | 0 mm | - | - | - |
* Rain latest hour (hover to see other rain measurements)
** Current wind speed in m/s (hover to see current wind gust speed)